Location: Bluff Heights
(33.7692°N, 118.1592°W)
Time: 04:52:10
(UTC+00:00)

Vanguard 1 Rocket - Pass Details

Date: 26 September 2021
Orbit: 650 x 4225 km, 34.3° (Epoch: 24 October)

Event Time Altitude Azimuth Distance (km) Brightness Sun altitude
Rises 02:28:31 0° 217° (SW) 3,099 10.6 -10.0°
Reaches altitude 10° 02:31:20 10° 202° (SSW) 2,061 9.4 -10.5°
Maximum altitude 02:34:47 22° 149° (SSE) 1,411 8.1 -11.2°
Enters shadow 02:37:08 15° 110° (ESE) 1,791 8.3 -11.7°
